DLH5MR EDDM-EDDF

Flight info

Callsign DLH5MR
Flight time 0h 33m
Altitude 24000
Route GIVMI6Q GIVMI Y101 ERNAS T161 DEBHI DEBHI1B
Aircraft A321/M-SDE2E3FGIJ1LORWXYZ/HB1

Departure

Time 2026-05-04 18:33
Airport Munich Airport (EDDM)

Arrival

Time 2026-05-04 19:06
Airport Frankfurt Main Airport (EDDF)
Time Latitude Longitude Altitude Speed Heading
2026-05-04 17:49 48.35450 11.79312 1486 ft 0 kts 263°
2026-05-04 18:19 48.35454 11.79352 1480 ft 3 kts 257°
2026-05-04 18:19 48.35460 11.79385 1475 ft 3 kts 250°
2026-05-04 18:19 48.35469 11.79416 1479 ft 3 kts 237°
2026-05-04 18:20 48.35483 11.79441 1473 ft 3 kts 207°
2026-05-04 18:20 48.35496 11.79447 1483 ft 0 kts 173°
2026-05-04 18:25 48.35485 11.79460 1476 ft 3 kts 130°
2026-05-04 18:25 48.35490 11.79498 1480 ft 6 kts 56°
2026-05-04 18:25 48.35544 11.79507 1481 ft 11 kts 353°
2026-05-04 18:25 48.35622 11.79493 1485 ft 12 kts 353°
2026-05-04 18:26 48.35711 11.79478 1485 ft 14 kts 353°
2026-05-04 18:26 48.35807 11.79461 1478 ft 12 kts 353°
2026-05-04 18:26 48.35880 11.79459 1482 ft 11 kts 15°
2026-05-04 18:26 48.35950 11.79501 1482 ft 11 kts
2026-05-04 18:27 48.36030 11.79490 1480 ft 12 kts 353°
2026-05-04 18:27 48.36121 11.79474 1475 ft 14 kts 353°
2026-05-04 18:27 48.36197 11.79483 1481 ft 11 kts 31°
2026-05-04 18:27 48.36223 11.79592 1472 ft 13 kts 83°
2026-05-04 18:28 48.36236 11.79759 1475 ft 18 kts 84°
2026-05-04 18:28 48.36251 11.79951 1480 ft 19 kts 83°
2026-05-04 18:28 48.36266 11.80155 1480 ft 20 kts 83°
2026-05-04 18:28 48.36283 11.80371 1481 ft 21 kts 83°
2026-05-04 18:29 48.36301 11.80597 1485 ft 22 kts 83°
2026-05-04 18:29 48.36319 11.80834 1483 ft 23 kts 83°
2026-05-04 18:29 48.36338 11.81080 1474 ft 24 kts 83°
2026-05-04 18:29 48.36357 11.81336 1481 ft 25 kts 83°
2026-05-04 18:30 48.36396 11.81831 1482 ft 16 kts 83°
2026-05-04 18:30 48.36397 11.81956 1485 ft 10 kts 77°
2026-05-04 18:30 48.36459 11.82000 1473 ft 11 kts 356°
2026-05-04 18:31 48.36537 11.81987 1481 ft 9 kts 353°
2026-05-04 18:31 48.36560 11.81984 1485 ft 0 kts 354°
2026-05-04 18:31 48.36567 11.81982 1478 ft 4 kts 354°
2026-05-04 18:32 48.36617 11.81974 1485 ft 9 kts 354°
2026-05-04 18:32 48.36669 11.81953 1471 ft 7 kts 311°
2026-05-04 18:32 48.36670 11.81868 1481 ft 13 kts 263°
2026-05-04 18:32 48.36633 11.81386 1481 ft 84 kts 263°
2026-05-04 18:33 48.36538 11.80160 1471 ft 149 kts 263°
2026-05-04 18:33 48.36396 11.78411 1785 ft 174 kts 264°
2026-05-04 18:33 48.36252 11.76613 2500 ft 173 kts 264°
2026-05-04 18:33 48.36121 11.74781 2948 ft 184 kts 264°
2026-05-04 18:34 48.35974 11.72752 3133 ft 206 kts 264°
2026-05-04 18:34 48.35802 11.70504 3271 ft 225 kts 263°
2026-05-04 18:34 48.35843 11.68081 3453 ft 240 kts 287°
2026-05-04 18:34 48.36582 11.65753 3640 ft 257 kts 303°
2026-05-04 18:35 48.37560 11.63394 3859 ft 271 kts 302°
2026-05-04 18:35 48.38563 11.60966 4281 ft 275 kts 302°
2026-05-04 18:35 48.39576 11.58496 4943 ft 278 kts 301°
2026-05-04 18:35 48.40588 11.56010 5776 ft 280 kts 301°
2026-05-04 18:36 48.41603 11.53504 6593 ft 281 kts 300°
2026-05-04 18:36 48.42621 11.50986 7379 ft 282 kts 299°
2026-05-04 18:36 48.43644 11.48455 8167 ft 284 kts 298°
2026-05-04 18:36 48.44752 11.45975 8938 ft 289 kts 308°
2026-05-04 18:37 48.46351 11.44088 9698 ft 298 kts 330°
2026-05-04 18:37 48.48369 11.43150 10226 ft 314 kts 344°
2026-05-04 18:37 48.50581 11.42426 10400 ft 337 kts 345°
2026-05-04 18:37 48.52926 11.41704 10803 ft 349 kts 346°
2026-05-04 18:38 48.55327 11.40987 11414 ft 354 kts 346°
2026-05-04 18:38 48.57754 11.40272 12050 ft 357 kts 346°
2026-05-04 18:38 48.60206 11.39542 12698 ft 361 kts 346°
2026-05-04 18:38 48.62682 11.38794 13351 ft 365 kts 346°
2026-05-04 18:39 48.65182 11.38024 13965 ft 368 kts 346°
2026-05-04 18:39 48.67701 11.37237 14542 ft 371 kts 345°
2026-05-04 18:39 48.70155 11.36058 15125 ft 370 kts 334°
2026-05-04 18:39 48.72412 11.34193 15718 ft 369 kts 323°
2026-05-04 18:40 48.74548 11.32010 16319 ft 371 kts 323°
2026-05-04 18:40 48.76699 11.29819 16891 ft 373 kts 323°
2026-05-04 18:40 48.78863 11.27622 17504 ft 375 kts 323°
2026-05-04 18:40 48.81041 11.25413 18082 ft 378 kts 323°
2026-05-04 18:41 48.83230 11.23190 18607 ft 380 kts 323°
2026-05-04 18:41 48.85325 11.20763 19083 ft 380 kts 315°
2026-05-04 18:41 48.87277 11.18044 19570 ft 382 kts 314°
2026-05-04 18:41 48.89246 11.15300 20040 ft 385 kts 314°
2026-05-04 18:42 48.91228 11.12540 20522 ft 388 kts 314°
2026-05-04 18:42 48.93224 11.09760 20992 ft 391 kts 314°
2026-05-04 18:42 48.95234 11.06956 21447 ft 393 kts 314°
2026-05-04 18:42 48.97257 11.04130 21908 ft 396 kts 314°
2026-05-04 18:43 48.99293 11.01281 22362 ft 399 kts 314°
2026-05-04 18:43 49.01340 10.98416 22812 ft 402 kts 314°
2026-05-04 18:43 49.03403 10.95522 23220 ft 405 kts 314°
2026-05-04 18:43 49.05483 10.92588 23500 ft 409 kts 314°
2026-05-04 18:44 49.07579 10.89630 23733 ft 412 kts 314°
2026-05-04 18:44 49.08974 10.87661 23871 ft 413 kts 314°
2026-05-04 18:44 49.11796 10.83675 23974 ft 414 kts 314°
2026-05-04 18:44 49.13912 10.80680 23998 ft 414 kts 314°
2026-05-04 18:45 49.16018 10.77700 23999 ft 414 kts 314°
2026-05-04 18:45 49.18128 10.74711 24001 ft 414 kts 314°
2026-05-04 18:45 49.20229 10.71709 23998 ft 413 kts 313°
2026-05-04 18:45 49.22274 10.68627 23993 ft 413 kts 311°
2026-05-04 18:46 49.24273 10.65479 23979 ft 412 kts 310°
2026-05-04 18:46 49.26250 10.62305 23988 ft 412 kts 310°
2026-05-04 18:46 49.28221 10.59122 23980 ft 412 kts 310°
2026-05-04 18:46 49.30194 10.55942 23979 ft 411 kts 310°
2026-05-04 18:47 49.32173 10.52774 23979 ft 412 kts 310°
2026-05-04 18:47 49.34162 10.49612 23981 ft 412 kts 310°
2026-05-04 18:47 49.36111 10.46399 23966 ft 410 kts 306°
2026-05-04 18:47 49.37804 10.42887 23561 ft 409 kts 302°
2026-05-04 18:48 49.39433 10.39349 23071 ft 404 kts 301°
2026-05-04 18:48 49.41039 10.35826 22668 ft 401 kts 301°
2026-05-04 18:48 49.42631 10.32320 22261 ft 399 kts 301°
2026-05-04 18:48 49.44209 10.28839 21863 ft 397 kts 301°
2026-05-04 18:49 49.45782 10.25365 21467 ft 394 kts 301°
2026-05-04 18:49 49.47344 10.21914 21061 ft 392 kts 302°
2026-05-04 18:49 49.48900 10.18486 20673 ft 390 kts 302°
2026-05-04 18:49 49.50444 10.15073 20272 ft 388 kts 302°
2026-05-04 18:50 49.51979 10.11677 19887 ft 385 kts 302°
2026-05-04 18:50 49.53508 10.08300 19490 ft 383 kts 302°
2026-05-04 18:50 49.55026 10.04942 19091 ft 381 kts 302°
2026-05-04 18:50 49.56534 10.01599 18713 ft 379 kts 302°
2026-05-04 18:51 49.58033 9.98269 18328 ft 377 kts 302°
2026-05-04 18:51 49.59505 9.94999 17915 ft 375 kts 302°
2026-05-04 18:51 49.61005 9.91665 17541 ft 373 kts 302°
2026-05-04 18:51 49.62479 9.88381 17152 ft 372 kts 302°
2026-05-04 18:52 49.63927 9.85150 16781 ft 370 kts 302°
2026-05-04 18:52 49.65382 9.81899 16405 ft 368 kts 302°
2026-05-04 18:52 49.66846 9.78621 16022 ft 365 kts 302°
2026-05-04 18:52 49.68319 9.75451 15541 ft 362 kts 308°
2026-05-04 18:53 49.70046 9.72699 15003 ft 360 kts 312°
2026-05-04 18:53 49.71807 9.69956 14520 ft 359 kts 312°
2026-05-04 18:53 49.73556 9.67225 14043 ft 356 kts 312°
2026-05-04 18:53 49.75295 9.64515 13535 ft 354 kts 312°
2026-05-04 18:54 49.77023 9.61826 13015 ft 351 kts 312°
2026-05-04 18:54 49.78739 9.59163 12541 ft 349 kts 312°
2026-05-04 18:54 49.80451 9.56512 12157 ft 347 kts 312°
2026-05-04 18:54 49.82157 9.53879 11786 ft 345 kts 312°
2026-05-04 18:55 49.83855 9.51261 11411 ft 344 kts 312°
2026-05-04 18:55 49.87206 9.46077 10737 ft 332 kts 311°
2026-05-04 18:55 49.88790 9.43558 10494 ft 321 kts 311°
2026-05-04 18:56 49.90307 9.41108 10250 ft 311 kts 310°
2026-05-04 18:56 49.91788 9.38719 10005 ft 302 kts 310°
2026-05-04 18:56 49.93223 9.36416 9805 ft 293 kts 310°
2026-05-04 18:56 49.94632 9.34165 9445 ft 289 kts 311°
2026-05-04 18:57 49.96034 9.31937 9068 ft 288 kts 311°
2026-05-04 18:57 49.97429 9.29721 8655 ft 286 kts 311°
2026-05-04 18:57 49.98819 9.27512 8251 ft 286 kts 311°
2026-05-04 18:57 49.99744 9.26041 8047 ft 293 kts 311°
2026-05-04 18:58 50.01229 9.23664 7784 ft 314 kts 311°
2026-05-04 18:58 50.02761 9.21221 7549 ft 316 kts 312°
2026-05-04 18:58 50.04316 9.18747 7304 ft 316 kts 312°
2026-05-04 18:58 50.05854 9.16304 7062 ft 315 kts 312°
2026-05-04 18:59 50.07372 9.13892 6957 ft 315 kts 312°
2026-05-04 18:59 50.08909 9.11447 6970 ft 317 kts 312°
2026-05-04 18:59 50.10447 9.08994 6974 ft 317 kts 312°
2026-05-04 18:59 50.11839 9.06364 6940 ft 314 kts 297°
2026-05-04 19:00 50.12628 9.03276 6691 ft 301 kts 285°
2026-05-04 19:00 50.13235 9.00210 6445 ft 291 kts 284°
2026-05-04 19:00 50.13804 8.97243 6160 ft 279 kts 282°
2026-05-04 19:00 50.14004 8.94351 5883 ft 260 kts 264°
2026-05-04 19:01 50.13658 8.91711 5711 ft 240 kts 248°
2026-05-04 19:01 50.13102 8.89354 5443 ft 226 kts 248°
2026-05-04 19:01 50.12575 8.87111 5163 ft 216 kts 248°
2026-05-04 19:01 50.12070 8.84964 4868 ft 206 kts 248°
2026-05-04 19:02 50.11586 8.82908 4561 ft 198 kts 248°
2026-05-04 19:02 50.11116 8.80914 4277 ft 195 kts 249°
2026-05-04 19:02 50.10648 8.78933 4001 ft 194 kts 249°
2026-05-04 19:02 50.10183 8.76964 3732 ft 193 kts 249°
2026-05-04 19:03 50.09721 8.75005 3459 ft 193 kts 249°
2026-05-04 19:03 50.09257 8.73047 3188 ft 192 kts 250°
2026-05-04 19:03 50.08795 8.71094 2911 ft 192 kts 250°
2026-05-04 19:03 50.08334 8.69150 2638 ft 192 kts 251°
2026-05-04 19:04 50.07874 8.67207 2364 ft 191 kts 251°
2026-05-04 19:04 50.07429 8.65337 2097 ft 178 kts 251°
2026-05-04 19:04 50.07013 8.63584 1853 ft 168 kts 251°
2026-05-04 19:04 50.06624 8.61952 1631 ft 154 kts 252°
2026-05-04 19:05 50.06261 8.60433 1412 ft 148 kts 251°
2026-05-04 19:05 50.05907 8.58946 1198 ft 145 kts 251°
2026-05-04 19:05 50.05561 8.57493 992 ft 142 kts 252°
2026-05-04 19:05 50.05225 8.56071 792 ft 139 kts 251°
2026-05-04 19:06 50.04889 8.54670 600 ft 138 kts 251°
2026-05-04 19:06 50.04559 8.53273 403 ft 138 kts 251°
2026-05-04 19:06 50.04248 8.51966 337 ft 105 kts 249°
2026-05-04 19:06 50.04087 8.51299 329 ft 35 kts 249°
2026-05-04 19:07 50.04006 8.51064 327 ft 21 kts 231°
2026-05-04 19:07 50.03897 8.50906 325 ft 17 kts 220°
2026-05-04 19:07 50.03824 8.50834 331 ft 10 kts 185°
2026-05-04 19:07 50.03781 8.50885 329 ft 3 kts 113°
2026-05-04 19:08 50.03784 8.50934 333 ft 7 kts 72°
2026-05-04 19:08 50.03811 8.51050 333 ft 15 kts 70°
2026-05-04 19:08 50.03854 8.51229 331 ft 19 kts 70°
2026-05-04 19:08 50.03901 8.51425 334 ft 20 kts 69°
2026-05-04 19:09 50.03952 8.51637 336 ft 21 kts 69°
2026-05-04 19:09 50.04005 8.51859 336 ft 22 kts 70°
2026-05-04 19:09 50.04060 8.52089 339 ft 22 kts 69°
2026-05-04 19:09 50.04114 8.52313 352 ft 22 kts 69°
2026-05-04 19:10 50.04167 8.52534 352 ft 22 kts 69°
2026-05-04 19:10 50.04220 8.52754 358 ft 22 kts 70°
2026-05-04 19:10 50.04272 8.52973 362 ft 22 kts 69°
2026-05-04 19:10 50.04324 8.53193 363 ft 21 kts 70°
2026-05-04 19:11 50.04374 8.53399 374 ft 20 kts 70°
2026-05-04 19:11 50.04402 8.53613 375 ft 22 kts 84°
2026-05-04 19:11 50.04419 8.53859 375 ft 24 kts 83°
2026-05-04 19:11 50.04436 8.54121 375 ft 25 kts 84°
2026-05-04 19:12 50.04451 8.54372 373 ft 19 kts 85°
2026-05-04 19:12 50.04349 8.54738 359 ft 18 kts 143°
2026-05-04 19:12 50.04226 8.54821 352 ft 20 kts 160°
2026-05-04 19:13 50.04098 8.54893 351 ft 17 kts 159°
2026-05-04 19:13 50.04034 8.54934 358 ft 8 kts 158°
2026-05-04 19:13 50.03984 8.54963 355 ft 8 kts 160°
2026-05-04 19:13 50.03923 8.54997 358 ft 9 kts 160°
2026-05-04 19:14 50.03863 8.55038 359 ft 10 kts 143°
2026-05-04 19:14 50.03854 8.55141 358 ft 11 kts 70°
2026-05-04 19:14 50.03883 8.55260 355 ft 13 kts 69°
2026-05-04 19:14 50.03917 8.55401 352 ft 15 kts 70°
2026-05-04 19:15 50.03955 8.55561 356 ft 17 kts 69°
2026-05-04 19:15 50.03998 8.55744 360 ft 18 kts 69°
2026-05-04 19:15 50.04040 8.55915 355 ft 15 kts 68°
2026-05-04 19:15 50.04112 8.55960 359 ft 11 kts 344°
2026-05-04 19:16 50.04190 8.55919 355 ft 12 kts 351°
2026-05-04 19:16 50.04268 8.55957 357 ft 11 kts 12°
2026-05-04 19:16 50.04342 8.55930 362 ft 11 kts 339°
2026-05-04 19:16 50.04419 8.55910 357 ft 12 kts
2026-05-04 19:17 50.04503 8.55946 363 ft 13 kts 17°
2026-05-04 19:17 50.04578 8.55975 359 ft 10 kts 358°
2026-05-04 19:17 50.04633 8.55950 358 ft 5 kts 340°
2026-05-04 19:17 50.04642 8.55944 362 ft 0 kts 340°